Weather History for Providence, RI

Change the Weather History Date:

Tuesday, February 26, 2013

  Actual Average Record
Temperature  
Mean Temperature 39 °F 34 °F  
Max Temperature 44 °F 43 °F 65 °F (1957)
Min Temperature 34 °F 26 °F 0 °F (1928)
Degree Days  
Heating Degree Days 26 31  
Month to date heating degree days 896 864  
Since 1 July heating degree days 3771 4001  
Cooling Degree Days 0 0  
Month to date cooling degree days 0 0  
Year to date cooling degree days 0 0  
Moisture  
Dew Point 29 °F    
Average Humidity 69    
Maximum Humidity 89    
Minimum Humidity 49    
Precipitation  
Precipitation T in 0.13 in 2.18 in (1979)
Month to date precipitation 3.64 3.02  
Year to date precipitation 5.57 6.88  
Snow  
Snow 0.00 in 0.30 in 7.60 in (1934)
Month to date snowfall 24.3 8.0  
Since 1 July snowfall 41.4 27.2  
Snow Depth 0.00 in    
Sea Level Pressure  
Sea Level Pressure 30.26 in    
Wind  
Wind Speed 5 mph (ESE)    
Max Wind Speed 13 mph    
Max Gust Speed 13 mph    
Visibility 10 miles    
Events      
T = Trace of Precipitation, MM = Missing Value Source: NWS Daily Summary

Daily Weather History Graph

Daily Weather History Graph

Search for Another Location

Airport:

Trip Planner

Search our weather history database for the weather conditions in past years. The results will help you decide how hot, cold, wet, or windy it might be!

Date:

Astronomy

Feb. 26, 2013 Rise Set
Actual Time 6:24 AM EST 5:32 PM EST
Civil Twilight 5:56 AM EST 6:00 PM EST
Nautical Twilight 5:24 AM EST 6:33 PM EST
Astronomical Twilight 4:52 AM EST 7:05 PM EST
Moon 6:48 PM EST (2/26) 6:24 AM EST (2/26)
Length of Visible Light 12h 03m
Length of Day
11h 07m
Full, 99% of the Moon is Illuminated
Feb 26
Full
Mar 4
Last Quarter
Mar 11
New
Mar 19
First Quarter
Mar 27
Full

Hourly Weather History & Observations

Time (EST) Temp. Windchill Dew Point Humidity Pressure Visibility Wind Dir Wind Speed Gust Speed Precip Events Conditions
12:51 AM 35.1 °F - 30.9 °F 85% 30.26 in 10.0 mi Calm Calm - N/A   Overcast
1:51 AM 35.1 °F - 30.0 °F 82% 30.24 in 10.0 mi Calm Calm - N/A   Overcast
2:51 AM 34.0 °F 31.0 °F 30.0 °F 85% 30.26 in 10.0 mi SW 3.5 mph - N/A   Overcast
3:51 AM 35.1 °F - 30.9 °F 85% 30.29 in 10.0 mi Calm Calm - N/A   Overcast
4:51 AM 34.0 °F - 30.9 °F 89% 30.29 in 10.0 mi Calm Calm - N/A   Overcast
5:51 AM 35.1 °F - 30.9 °F 85% 30.30 in 10.0 mi Calm Calm - N/A   Mostly Cloudy
6:51 AM 34.0 °F - 30.9 °F 89% 30.30 in 10.0 mi Calm Calm - N/A   Mostly Cloudy
7:51 AM 36.0 °F - 32.0 °F 86% 30.32 in 10.0 mi Calm Calm - N/A   Mostly Cloudy
8:51 AM 37.0 °F - 32.0 °F 82% 30.33 in 10.0 mi Calm Calm - N/A   Mostly Cloudy
9:51 AM 41.0 °F 37.1 °F 30.9 °F 67% 30.33 in 10.0 mi ESE 5.8 mph - N/A   Scattered Clouds
10:51 AM 42.1 °F 37.7 °F 28.9 °F 60% 30.33 in 10.0 mi SSE 6.9 mph - N/A   Mostly Cloudy
11:51 AM 41.0 °F - 28.9 °F 62% 30.32 in 10.0 mi Calm Calm - N/A   Mostly Cloudy
12:51 PM 43.0 °F 38.8 °F 28.9 °F 58% 30.31 in 10.0 mi Variable 6.9 mph - N/A   Mostly Cloudy
1:51 PM 42.1 °F 37.7 °F 25.0 °F 51% 30.30 in 10.0 mi South 6.9 mph - N/A   Mostly Cloudy
2:51 PM 41.0 °F 36.4 °F 25.0 °F 53% 30.27 in 10.0 mi South 6.9 mph - N/A   Mostly Cloudy
3:51 PM 39.9 °F 33.9 °F 25.0 °F 55% 30.28 in 10.0 mi SSE 9.2 mph - N/A   Mostly Cloudy
4:51 PM 39.0 °F 33.4 °F 26.1 °F 60% 30.27 in 10.0 mi South 8.1 mph - N/A   Mostly Cloudy
5:51 PM 37.9 °F 32.7 °F 24.1 °F 57% 30.26 in 10.0 mi ESE 6.9 mph - N/A   Overcast
6:51 PM 37.0 °F 31.0 °F 25.0 °F 62% 30.24 in 10.0 mi ESE 8.1 mph - N/A   Overcast
7:51 PM 37.0 °F 31.6 °F 27.0 °F 67% 30.25 in 10.0 mi East 6.9 mph - N/A   Overcast
8:51 PM 36.0 °F 29.6 °F 28.0 °F 73% 30.22 in 10.0 mi ENE 8.1 mph - N/A   Overcast
9:51 PM 37.0 °F 31.0 °F 28.0 °F 70% 30.19 in 10.0 mi ENE 8.1 mph - N/A   Overcast
10:33 PM 35.6 °F 29.2 °F 28.4 °F 75% 30.17 in 10.0 mi ENE 8.1 mph - N/A   Overcast
10:51 PM 36.0 °F 28.0 °F 28.0 °F 73% 30.15 in 10.0 mi ENE 11.5 mph - N/A   Overcast
11:51 PM 37.0 °F 30.4 °F 30.0 °F 76% 30.12 in 10.0 mi ENE 9.2 mph - N/A   Overcast